Weather History for KAEX - January, 2013

Change the Weather History Date:

Thursday, January 3, 2013

  Actual Average Record
Temperature  
Mean Temperature 45 °F 49 °F  
Max Temperature 53 °F 59 °F 79 °F (1907)
Min Temperature 36 °F 39 °F 12 °F (1979)
Degree Days  
Heating Degree Days 20 16  
Month to date heating degree days 55 48  
Since 1 July heating degree days 764 837  
Moisture  
Dew Point 34 °F    
Average Humidity 69    
Maximum Humidity 92    
Minimum Humidity 45    
Precipitation  
Precipitation 0.00 in 0.15 in 2.17 in (1991)
Month to date precipitation 2.38 0.41  
Year to date precipitation 2.38 0.41  
Snow  
Snow 0.00 in - 1.00 in (1985)
Month to date snowfall 0.0  
Since 1 July snowfall 0.0  
Snow Depth 0.00 in    
Sea Level Pressure  
Sea Level Pressure 30.36 in    
Wind  
Wind Speed 7 mph (NNE)    
Max Wind Speed 13 mph    
Max Gust Speed 17 mph    
Visibility 9 miles    
Events      
T = Trace of Precipitation, MM = Missing Value Source: NWS Daily Summary

Daily Weather History Graph

Daily Weather History Graph

Search for Another Location

Airport or City:

Trip Planner

Search our weather history database for the weather conditions in past years. The results will help you decide how hot, cold, wet, or windy it might be!

Date:

Astronomy

Jan. 03, 2013 Rise Set
Actual Time 7:09 AM CST 5:20 PM CST
Civil Twilight 6:43 AM CST 5:46 PM CST
Nautical Twilight 6:12 AM CST 6:17 PM CST
Astronomical Twilight 5:43 AM CST 6:46 PM CST
Moon 11:28 PM CST (1/3) 10:46 AM CST (1/3)
Length of Visible Light 11h 03m
Length of Day
10h 10m
Waning Gibbous, 65% of the Moon is Illuminated
Jan 3
Waning Gibbous
Jan 4
Last Quarter
Jan 11
New
Jan 18
First Quarter
Jan 26
Full

Hourly Weather History & Observations

Time (CST) Temp. Windchill Dew Point Humidity Pressure Visibility Wind Dir Wind Speed Gust Speed Precip Events Conditions
12:18 AM 41.0 °F 37.1 °F 37.4 °F 87% 30.28 in 10.0 mi ENE 5.8 mph - N/A   Overcast
12:41 AM 41.0 °F 39.0 °F 37.4 °F 87% 30.28 in 8.0 mi North 3.5 mph - N/A   Overcast
1:53 AM 41.0 °F 37.1 °F 37.9 °F 89% 30.31 in 10.0 mi North 5.8 mph - N/A   Overcast
2:53 AM 39.9 °F 35.1 °F 36.0 °F 86% 30.31 in 10.0 mi North 6.9 mph - N/A   Overcast
3:17 AM 39.2 °F 34.2 °F 35.6 °F 87% 30.30 in 10.0 mi North 6.9 mph - N/A   Scattered Clouds
3:53 AM 39.9 °F 35.8 °F 36.0 °F 86% 30.32 in 10.0 mi North 5.8 mph - N/A   Clear
4:53 AM 39.0 °F 34.8 °F 36.0 °F 89% 30.32 in 10.0 mi North 5.8 mph - N/A   Clear
5:53 AM 37.9 °F 34.4 °F 35.1 °F 89% 30.33 in 9.0 mi North 4.6 mph - N/A   Clear
6:53 AM 37.0 °F 31.6 °F 35.1 °F 93% 30.35 in 7.0 mi NNW 6.9 mph - N/A   Clear
7:53 AM 37.0 °F 32.4 °F 35.1 °F 93% 30.38 in 5.0 mi NNW 5.8 mph - N/A   Clear
8:53 AM 37.9 °F 32.7 °F 36.0 °F 93% 30.40 in 6.0 mi North 6.9 mph - N/A   Partly Cloudy
9:53 AM 42.1 °F 36.6 °F 36.0 °F 79% 30.42 in 9.0 mi NNE 9.2 mph - N/A   Clear
10:53 AM 45.0 °F 39.3 °F 35.1 °F 68% 30.42 in 10.0 mi NNE 11.5 mph - N/A   Clear
11:53 AM 48.0 °F - 34.0 °F 58% 30.37 in 10.0 mi NNE 9.2 mph - N/A   Clear
12:53 PM 50.0 °F - 34.0 °F 54% 30.35 in 10.0 mi Variable 4.6 mph 16.1 mph N/A   Clear
1:53 PM 51.1 °F - 32.0 °F 48% 30.32 in 10.0 mi NNW 8.1 mph - N/A   Clear
2:53 PM 53.1 °F - 32.0 °F 45% 30.32 in 10.0 mi North 6.9 mph 17.3 mph N/A   Clear
3:53 PM 52.0 °F - 33.1 °F 49% 30.34 in 10.0 mi North 10.4 mph - N/A   Clear
4:53 PM 48.0 °F - 32.0 °F 54% 30.37 in 10.0 mi NNE 5.8 mph - N/A   Clear
5:53 PM 46.9 °F - 32.0 °F 56% 30.39 in 10.0 mi NNE 4.6 mph - N/A   Clear
6:53 PM 46.0 °F 43.1 °F 33.1 °F 61% 30.41 in 10.0 mi NNE 5.8 mph - N/A   Clear
7:53 PM 46.0 °F 42.5 °F 32.0 °F 58% 30.41 in 10.0 mi NNE 6.9 mph - N/A   Mostly Cloudy
8:53 PM 45.0 °F 41.2 °F 32.0 °F 60% 30.43 in 10.0 mi NNE 6.9 mph - N/A   Scattered Clouds
9:53 PM 43.0 °F 40.3 °F 32.0 °F 65% 30.43 in 10.0 mi NE 4.6 mph - N/A   Partly Cloudy
10:53 PM 42.1 °F 39.2 °F 33.1 °F 70% 30.44 in 10.0 mi NE 4.6 mph - N/A   Partly Cloudy
11:53 PM 41.0 °F 38.0 °F 33.1 °F 73% 30.43 in 10.0 mi NNE 4.6 mph - N/A   Partly Cloudy